Yatton Keynell, United Kingdom

12:12 PM BST on April 20, 2019 (GMT +0100)
Yatton Keynell

Weather History for 03740 - June, 2003

Change the Weather History Date:

Sunday, June 22, 2003

  Actual Average Record
Temperature  
Mean Temperature 68 °F -  
Max Temperature 78 °F 68 °F - ()
Min Temperature 59 °F 52 °F - ()
Cooling Degree Days 4    
Growing Degree Days 18 (Base 50)    
Moisture  
Dew Point 57 °F    
Average Humidity 75    
Maximum Humidity 100    
Minimum Humidity 54    
Precipitation  
Precipitation 0.00 in 0.07 in - ()
Sea Level Pressure  
Sea Level Pressure 29.75 in    
Wind  
Wind Speed 9 mph ()    
Max Wind Speed 17 mph    
Max Gust Speed -    
Visibility 4.7 miles    
Events Rain    
T = Trace of Precipitation, MM = Missing Value Source: Averaged Metar Reports

Daily Weather History Graph

Daily Weather History Graph

Search for Another Location

Airport or City:

Astronomy

Jun. 22, 2003 Rise Set
Actual Time 4:50 AM BST 9:29 PM BST
Civil Twilight 4:02 AM BST 10:16 PM BST
Nautical Twilight 2:48 AM BST 11:31 PM BST
Astronomical Twilight 1:42 AM BST 12:37 AM BST
Moon 1:43 AM BST (6/22) 1:57 PM BST (6/22)
Length of Visible Light 18h 13m
Length of Day
16h 38m
Last Quarter, 42% of the Moon is Illuminated
Jun 22
Last Quarter
Jun 29
New
Jul 7
First Quarter
Jul 13
Full
Jul 21
Last Quarter

Hourly Weather History & Observations

Time (BST) Temp. Dew Point Humidity Pressure Visibility Wind Dir Wind Speed Gust Speed Precip Events Conditions
12:50 AM 60.8 °F 50.0 °F 68% 29.89 in - ESE 9.2 mph - N/A   Clear
1:50 AM 60.8 °F 50.0 °F 68% 29.89 in - ESE 8.1 mph - N/A   Clear
2:50 AM 60.8 °F 51.8 °F 72% 29.83 in - ESE 9.2 mph - N/A   Clear
3:50 AM 59.0 °F 51.8 °F 77% 29.83 in - SE 8.1 mph - N/A   Clear
4:50 AM 59.0 °F 51.8 °F 77% 29.80 in - SE 8.1 mph - N/A   Clear
5:50 AM 60.8 °F 53.6 °F 77% 29.77 in - SSE 11.5 mph - N/A   Clear
6:50 AM 62.6 °F 53.6 °F 72% 29.80 in - SSE 15.0 mph - N/A   Clear
7:50 AM 60.8 °F 55.4 °F 82% 29.77 in 6.2 mi SSE 17.3 mph - N/A Rain Light Rain Showers
8:50 AM 62.6 °F 57.2 °F 82% 29.74 in - SE 15.0 mph - N/A   Clear
9:50 AM 64.4 °F 59.0 °F 83% 29.74 in 6.2 mi South 10.4 mph - N/A   Mostly Cloudy
10:50 AM 68.0 °F 59.0 °F 73% 29.74 in - SSW 6.9 mph - N/A   Clear
11:50 AM 71.6 °F 60.8 °F 69% 29.74 in - SSW 8.1 mph - N/A   Clear
12:50 PM 78.8 °F 62.6 °F 57% 29.74 in - South 15.0 mph - N/A   Clear
1:50 PM 77.0 °F 59.0 °F 54% 29.71 in - South 15.0 mph - N/A   Clear
2:50 PM 75.2 °F 59.0 °F 57% 29.71 in - South 13.8 mph - N/A   Clear
3:50 PM 73.4 °F 60.8 °F 65% 29.71 in - SSW 12.7 mph - N/A   Clear
4:50 PM 71.6 °F 59.0 °F 64% 29.68 in - South 11.5 mph - N/A   Clear
5:50 PM 69.8 °F 59.0 °F 68% 29.71 in - SW 12.7 mph - N/A   Clear
6:50 PM 66.2 °F 60.8 °F 83% 29.71 in 6.2 mi West 10.4 mph - N/A Rain Light Rain
7:50 PM 64.4 °F 59.0 °F 83% 29.71 in - WNW 6.9 mph - N/A   Clear
8:50 PM 62.6 °F 59.0 °F 88% 29.71 in 6.2 mi WSW 6.9 mph - N/A Rain Light Rain
9:50 PM 60.8 °F 60.8 °F 100% 29.74 in 2.5 mi SSW 4.6 mph - N/A Rain Rain
10:50 PM 60.8 °F 59.0 °F 94% 29.71 in 2.2 mi South 3.5 mph - N/A Rain Rain
11:50 PM 62.6 °F 60.8 °F 94% 29.65 in 3.1 mi SSE 6.9 mph - N/A Rain Rain